Location: Alsip
(41.6689°N, 87.7387°W)
Time: 15:08:36
(UTC+00:00)

ERS-1 - Pass Details

Date: 14 July 2020
Orbit: 741 x 790 km, 98.6° (Epoch: 12 August)

Event Time Altitude Azimuth Distance (km) Brightness Sun altitude
Rises 08:54:14 0° 11° (N) 3,248 8.8 -14.6°
Reaches altitude 10° 08:56:34 10° 9° (N) 2,310 7.9 -14.3°
Maximum altitude 09:01:37 71° 287° (WNW) 803 4.5 -13.7°
Enters shadow 09:05:25 17° 205° (SSW) 1,813 5.9 -13.2°
